Location: Moreno
(33.9175°N, 117.1578°W)
Time: 05:58:18
(UTC+00:00)

Cosmos 1655 Rocket - Pass Details

Date: 18 April 2024
Orbit: 971 x 1004 km, 83.0° (Epoch: 28 May)

Event Time Altitude Azimuth Distance (km) Brightness Sun altitude
Exits shadow 12:16:31 - 199° (SSW) 3,599 6.6 -12.0°
Reaches altitude 10° 12:18:57 10° 204° (SSW) 2,706 5.9 -11.6°
Maximum altitude 12:24:57 51° 279° (W) 1,201 4.2 -10.4°
Drops below altitude 10° 12:31:00 10° 355° (N) 2,725 6.5 -9.2°
Sets 12:33:37 0° 0° (N) 3,678 7.3 -8.7°
